Regional Weather Roundup
Issued by NWS Nashville, TN

Home | Current Version | Previous Version | Text Only | Print | Product List | Glossary On
Versions: 1 2 3 4 5 6 7 8 9 10 11 12 13 14 15 16 17 18 19 20 21 22 23 24 25 26 27 28 29 30 31 32 33 34 35 36 37 38 39 40 41 42 43 44 45 46 47 48 49 50
000
ASUS44 KOHX 241610
RWROHX
MIDDLE TENNESSEE HOURLY WEATHER ROUNDUP
NATIONAL WEATHER SERVICE NASHVILLE TN
1100 AM CDT SUN MAY 24 2015

NOTE: "FAIR" INDICATES FEW OR NO CLOUDS BELOW 12,000 FEET WITH
NO SIGNIFICANT WEATHER AND/OR OBSTRUCTIONS TO VISIBILITY.

* THESE REPORTS ARE NOT UNDER NWS QUALITY CONTROL AND MAY NOT
  REPORT WEATHER SUCH AS PRECIPITATION AND FOG.


TNZ005>011-023>034-057-059-062>066-078-080-241700
...NORTHERN MIDDLE TENNESSEE...

CITY           SKY/WX    TMP DP  RH WIND       PRES   REMARKS
CASTALIAN SPRG   N/A    N/A N/A N/A SE10      30.25F
CLARKSVILLE    SUNNY     78  61  55 SE12      30.19F
CROSSVILLE     MOSUNNY   72  55  55 S13G21    30.36F
GLADEVILLE*      N/A     79  61  53 S2        30.19F
JOELTON*         N/A     79  64  61 S3        30.14F
MOUNT JULIET*    N/A    N/A N/A N/A CALM      30.08F
NASHVILLE      MOSUNNY   82  59  45 SE12G22   30.23F
PORTLAND       SUNNY     77  59  53 S17       30.23F
SMYRNA         SUNNY     79  62  55 S14G21    30.24F
SPARTA         SUNNY     79  61  53 S12       30.29F
$$
TNZ056-058-060-061-075>077-079-093>097-241700
...SOUTHERN MIDDLE TENNESSEE...

CITY           SKY/WX    TMP DP  RH WIND       PRES   REMARKS
COLUMBIA       SUNNY     81  64  57 S9        30.21S
LEWISBURG      SUNNY     80  60  50 SE13      30.23F
MANCHESTER*      N/A     77  64  65 S3        30.21F
MCMINNVILLE    SUNNY     79  59  50 VRB7      30.29F
MOUNT PLEASANT   N/A     79  66  65 CALM      30.14F
SHELBYVILLE    SUNNY     79  63  57 SE15      30.26F
TULLAHOMA      SUNNY     75  57  53 SE12      30.28F
WINCHESTER     SUNNY     75  61  60 S16       30.28F
$$


...KEY TO REMARKS...
VSB - VISIBILITY IN MILES
WCI - WIND CHILL INDEX
HX  - HEAT INDEX



USA.gov is the U.S. government's official web portal to all federal, state and local government web resources and services.